"startDT [UTC]","vpos","CH4 [ppm]","stdev(CH4) [ppm]","CO2 [ppm]","stdev(CO2) [ppm]","H2O [ppm]","stdev(H2O)","p_LGR [torr]","T_LGR [C]","mt1_LGR [us]","mt2_LGR [us]","T_ECpre [C]","T_EC1 [C]","T_EC2 [C]","p_inlet [hPa]","p_in [hPa]","p_out [hPa]","T_inlet [C]","RH_inlet [%]","dwpt_inlet [C]","T_vent [C]","RH_vent [%]","dwpt_vent [C]","flow_vent [l min-1]","flow_inlet [l min-1]","dwpt_sample [C]","T_room [C]"
2012-08-10 00:00:00,0.0,1.9129,0.0012,374.68,0.34,286.8,31.2,137.97,35.28,24.65,36.39,0.98,14.67,-25.67,-52,565,-934,30.5,23.6,7.3,30.4,1.0,-31.4,5.73,2.31,-26.0,33.7
2012-08-10 00:01:00,0.0,1.9125,0.0010,374.88,0.32,278.6,30.2,137.97,35.27,24.65,36.39,0.98,14.86,-25.66,-52,565,-935,30.5,23.4,7.2,30.4,1.1,-31.0,5.73,2.33,-26.0,33.7
2012-08-10 00:02:00,0.0,1.9128,0.0008,375.02,0.31,283.5,31.5,137.97,35.28,24.65,36.39,0.98,15.04,-25.66,-52,565,-934,30.5,23.2,7.1,30.4,1.0,-31.3,5.73,2.34,-26.0,33.9
2012-08-10 00:03:00,0.0,1.9130,0.0011,374.84,0.30,286.4,24.9,137.97,35.28,24.64,36.40,0.98,15.20,-25.65,-52,565,-935,30.5,23.3,7.2,30.4,1.0,-31.3,5.73,2.32,-26.0,33.8
2012-08-10 00:04:00,0.0,1.9133,0.0012,374.91,0.34,283.5,27.4,137.97,35.28,24.65,36.40,0.96,15.37,-25.64,-52,565,-934,30.5,23.2,7.1,30.4,1.0,-31.2,5.73,2.31,-26.0,33.8
2012-08-10 00:05:00,0.0,1.9125,0.0011,375.14,0.34,282.2,25.7,137.97,35.28,24.65,36.40,0.98,15.52,-25.63,-52,565,-934,30.5,23.0,7.0,30.4,1.1,-31.0,5.73,2.34,-26.0,33.8
2012-08-10 00:06:00,0.0,1.9133,0.0011,375.19,0.32,294.3,27.2,137.97,35.29,24.65,36.39,0.98,15.67,-25.63,-52,565,-935,30.5,23.4,7.2,30.4,1.0,-31.1,5.73,2.33,-26.0,33.9
2012-08-10 00:07:00,0.0,1.9140,0.0008,375.16,0.32,289.8,26.4,137.97,35.29,24.65,36.40,0.97,15.82,-25.62,-52,565,-934,30.5,23.6,7.3,30.4,1.1,-31.1,5.73,2.31,-26.0,33.8
2012-08-10 00:08:00,0.0,1.9140,0.0012,375.07,0.31,287.5,27.4,137.97,35.29,24.65,36.40,0.97,15.95,-25.61,-52,565,-935,30.5,23.2,7.2,30.4,1.1,-30.9,5.73,2.32,-26.0,33.9
2012-08-10 00:09:00,0.0,1.9121,0.0013,375.56,0.31,284.0,30.1,137.97,35.29,24.65,36.40,0.98,16.08,-25.61,-52,565,-934,30.5,22.9,6.9,30.4,1.0,-31.1,5.73,2.34,-26.0,33.9
2012-08-10 00:10:00,0.0,1.9125,0.0010,375.62,0.36,280.2,28.7,137.97,35.30,24.65,36.39,0.97,16.20,-25.60,-52,565,-934,30.5,23.1,7.1,30.4,1.0,-31.1,5.73,2.32,-26.0,33.8
2012-08-10 00:11:00,0.0,1.9120,0.0013,375.59,0.38,281.7,29.2,137.97,35.30,24.64,36.39,0.96,16.32,-25.59,-52,565,-935,30.5,22.8,6.9,30.4,1.0,-31.3,5.73,2.31,-26.0,33.8
2012-08-10 00:12:00,0.0,1.9112,0.0010,375.70,0.33,287.4,29.6,137.97,35.30,24.65,36.39,0.96,16.44,-25.59,-52,565,-934,30.5,22.8,6.9,30.4,1.0,-31.1,5.73,2.34,-26.0,33.9
2012-08-10 00:13:00,0.0,1.9100,0.0010,375.69,0.33,289.1,30.5,137.97,35.31,24.65,36.39,0.96,16.55,-25.57,-52,565,-935,30.5,23.0,7.0,30.5,1.1,-31.0,5.73,2.33,-25.9,33.9
2012-08-10 00:14:00,0.0,1.9109,0.0010,375.56,0.30,301.4,24.1,137.97,35.31,24.65,36.40,0.96,16.65,-25.57,-52,565,-934,30.6,23.0,7.0,30.5,1.0,-31.1,5.73,2.31,-25.9,33.9
2012-08-10 00:15:00,0.0,1.9110,0.0011,375.49,0.41,286.4,27.3,137.97,35.31,24.65,36.40,0.95,16.75,-25.57,-52,565,-934,30.6,22.9,7.0,30.5,1.1,-30.8,5.73,2.32,-25.9,33.9
2012-08-10 00:16:00,0.0,1.9104,0.0010,375.56,0.32,291.0,27.6,137.97,35.31,24.65,36.41,0.96,16.85,-25.56,-52,565,-935,30.5,22.8,6.9,30.5,1.1,-31.0,5.73,2.34,-25.9,33.9
2012-08-10 00:17:00,0.0,1.9096,0.0011,375.65,0.32,291.3,31.1,137.97,35.31,24.65,36.40,0.97,16.93,-25.56,-52,565,-934,30.6,22.8,7.0,30.5,1.1,-30.9,5.73,2.32,-25.9,33.9
2012-08-10 00:18:00,0.0,1.9085,0.0010,375.81,0.29,291.4,31.1,137.97,35.32,24.65,36.39,0.98,17.02,-25.55,-52,565,-934,30.6,22.7,6.9,30.5,1.1,-31.0,5.73,2.30,-25.9,33.9
2012-08-10 00:19:00,0.0,1.9098,0.0013,375.61,0.39,288.2,29.9,137.97,35.32,24.64,36.39,0.97,17.11,-25.55,-52,565,-934,30.6,23.1,7.1,30.5,1.1,-31.0,5.73,2.33,-25.9,33.9
2012-08-10 00:20:00,0.0,1.9125,0.0012,375.12,0.30,287.0,28.6,137.97,35.32,24.64,36.40,0.97,17.19,-25.54,-52,565,-934,30.5,23.4,7.3,30.5,1.1,-30.8,5.73,2.34,-26.0,33.9
2012-08-10 00:21:00,0.0,1.9119,0.0015,375.20,0.37,285.4,25.9,137.97,35.32,24.65,36.39,0.98,17.26,-25.54,-52,565,-935,30.6,23.6,7.4,30.5,1.1,-30.9,5.73,2.31,-26.0,33.9
2012-08-10 00:22:00,0.0,1.9135,0.0013,375.14,0.35,292.7,30.4,137.97,35.32,24.65,36.40,0.98,17.33,-25.54,-52,565,-934,30.6,23.4,7.3,30.5,1.0,-31.1,5.73,2.32,-26.0,33.9
2012-08-10 00:23:00,0.0,1.9111,0.0013,375.53,0.32,285.4,24.5,137.97,35.33,24.65,36.39,0.97,17.41,-25.53,-52,565,-935,30.6,23.1,7.1,30.5,1.1,-31.0,5.73,2.34,-25.9,34.0
2012-08-10 00:24:00,0.0,1.9113,0.0010,375.38,0.34,290.0,27.5,137.97,35.33,24.65,36.40,0.98,17.48,-25.52,-52,565,-935,30.6,23.2,7.2,30.5,1.1,-30.9,5.73,2.32,-25.9,34.0
2012-08-10 00:25:00,0.0,1.9118,0.0013,375.30,0.42,295.7,26.5,137.97,35.33,24.65,36.40,0.99,17.54,-25.51,-52,565,-934,30.6,23.0,7.1,30.5,1.0,-31.1,5.73,2.31,-25.9,34.0
2012-08-10 00:26:00,0.0,1.9104,0.0009,375.96,0.34,300.7,29.5,137.97,35.34,24.64,36.39,0.99,17.61,-25.51,-52,566,-935,30.6,22.6,6.9,30.5,1.1,-31.0,5.73,2.33,-25.9,34.0
2012-08-10 00:27:00,0.0,1.9105,0.0010,375.68,0.33,305.8,32.5,137.97,35.34,24.65,36.40,0.99,17.67,-25.50,-52,566,-934,30.6,22.6,6.9,30.5,1.1,-31.0,5.73,2.33,-25.9,34.1
2012-08-10 00:28:00,0.0,1.9093,0.0009,376.03,0.32,296.7,29.2,137.97,35.34,24.64,36.39,0.99,17.73,-25.50,-52,565,-935,30.6,22.5,6.8,30.6,1.0,-31.1,5.73,2.30,-25.9,34.0
2012-08-10 00:29:00,0.0,1.9078,0.0010,376.02,0.32,299.7,28.8,137.97,35.34,24.65,36.39,0.97,17.78,-25.50,-52,566,-935,30.6,22.7,6.9,30.6,1.0,-31.0,5.73,2.31,-25.9,34.0
2012-08-10 00:30:00,0.0,1.9088,0.0010,375.79,0.40,288.5,27.6,137.97,35.35,24.64,36.40,0.98,17.84,-25.49,-52,565,-934,30.6,22.8,7.0,30.6,1.0,-31.0,5.73,2.34,-25.9,34.1
2012-08-10 00:31:00,0.0,1.9084,0.0010,375.70,0.35,294.3,29.6,137.97,35.35,24.65,36.40,0.98,17.88,-25.49,-52,566,-935,30.6,23.1,7.2,30.6,1.0,-31.1,5.73,2.32,-25.9,34.0
2012-08-10 00:32:00,0.0,1.9084,0.0010,375.71,0.39,302.1,31.9,137.97,35.35,24.65,36.40,0.96,17.93,-25.49,-52,566,-934,30.6,22.9,7.0,30.6,1.0,-31.1,5.73,2.30,-25.9,34.0
2012-08-10 00:33:00,0.0,1.9084,0.0012,375.93,0.27,294.4,29.3,137.97,35.36,24.65,36.39,0.96,17.98,-25.48,-52,566,-935,30.7,22.7,7.0,30.6,1.0,-31.2,5.73,2.33,-25.9,34.0
2012-08-10 00:34:00,0.0,1.9057,0.0011,376.29,0.35,305.9,32.2,137.97,35.36,24.65,36.39,0.96,18.03,-25.47,-52,566,-935,30.7,22.5,6.8,30.6,1.0,-31.2,5.73,2.33,-25.9,34.0
2012-08-10 00:35:00,0.0,1.9022,0.0013,376.60,0.42,304.0,29.6,137.97,35.36,24.65,36.39,0.96,18.06,-25.48,-52,566,-935,30.7,21.9,6.4,30.6,1.0,-31.0,5.73,2.30,-25.9,34.0
2012-08-10 00:36:00,0.0,1.9028,0.0023,376.50,0.41,294.1,26.5,137.97,35.36,24.65,36.40,0.96,18.11,-25.47,-52,566,-935,30.7,22.1,6.6,30.6,1.0,-31.3,5.73,2.32,-25.9,34.0
2012-08-10 00:37:00,0.0,1.9046,0.0013,376.63,0.33,289.5,33.0,137.97,35.36,24.65,36.39,0.97,18.16,-25.47,-52,566,-934,30.7,21.9,6.5,30.6,1.0,-31.2,5.73,2.34,-25.9,34.0
2012-08-10 00:38:00,0.0,1.9042,0.0015,376.67,0.32,292.4,26.1,137.97,35.37,24.65,36.39,0.96,18.19,-25.46,-52,566,-935,30.7,22.1,6.6,30.6,1.0,-31.2,5.73,2.31,-25.9,34.0
2012-08-10 00:39:00,0.0,1.9048,0.0013,376.22,0.36,293.2,29.6,137.97,35.37,24.65,36.40,0.96,18.23,-25.46,-52,566,-934,30.7,22.5,6.8,30.6,1.0,-31.0,5.73,2.31,-25.9,34.0
2012-08-10 00:40:00,0.0,1.9060,0.0012,376.27,0.41,300.7,25.5,137.97,35.38,24.65,36.40,0.97,18.26,-25.46,-52,566,-935,30.7,22.1,6.6,30.6,1.0,-31.3,5.73,2.34,-25.9,34.1
2012-08-10 00:41:00,0.0,1.9012,0.0014,376.88,0.28,300.2,28.4,137.97,35.38,24.65,36.40,0.98,18.30,-25.46,-52,566,-935,30.7,21.7,6.3,30.6,1.0,-31.3,5.73,2.32,-25.9,34.1
2012-08-10 00:42:00,0.0,1.9019,0.0014,376.93,0.34,297.4,33.3,137.97,35.39,24.65,36.39,0.97,18.33,-25.46,-52,566,-935,30.7,21.7,6.4,30.7,1.0,-31.2,5.73,2.30,-25.9,34.0
2012-08-10 00:43:00,0.0,1.9039,0.0011,376.46,0.38,297.3,30.6,137.97,35.39,24.65,36.40,0.98,18.36,-25.45,-52,566,-935,30.7,22.2,6.7,30.6,1.0,-31.2,5.73,2.32,-25.9,34.0
2012-08-10 00:44:00,0.0,1.9031,0.0012,376.49,0.35,302.7,25.7,137.97,35.39,24.65,36.40,0.97,18.39,-25.45,-52,566,-934,30.7,21.8,6.4,30.6,1.0,-31.1,5.73,2.33,-25.9,34.0
2012-08-10 00:45:00,0.0,1.9048,0.0025,376.26,0.54,297.9,30.8,137.97,35.40,24.65,36.40,0.99,18.42,-25.44,-52,566,-935,30.7,22.8,7.1,30.7,1.0,-31.2,5.73,2.31,-25.9,34.0
2012-08-10 00:46:00,0.0,1.9075,0.0014,376.04,0.41,301.5,26.4,137.97,35.40,24.65,36.40,0.98,18.45,-25.44,-52,566,-934,30.7,22.5,6.9,30.6,1.0,-31.2,5.73,2.31,-25.9,34.0
2012-08-10 00:47:00,0.0,1.9078,0.0022,375.83,0.46,304.7,28.6,137.97,35.40,24.65,36.40,0.99,18.47,-25.43,-52,566,-935,30.7,23.2,7.3,30.7,1.0,-31.2,5.73,2.33,-25.9,34.1
2012-08-10 00:48:00,0.0,1.9071,0.0010,375.96,0.39,304.6,31.6,137.97,35.41,24.65,36.40,0.98,18.50,-25.44,-52,566,-935,30.7,22.7,7.0,30.7,1.0,-31.2,5.73,2.32,-25.9,34.1
2012-08-10 00:49:00,0.0,1.9057,0.0011,376.30,0.34,301.9,32.3,137.96,35.41,24.65,36.40,1.01,18.52,-25.43,-52,566,-935,30.7,22.4,6.8,30.7,1.0,-31.1,5.73,2.30,-25.9,34.1
2012-08-10 00:50:00,0.0,1.9037,0.0010,376.68,0.27,305.0,29.9,137.97,35.42,24.65,36.40,0.99,18.55,-25.43,-52,566,-935,30.7,21.7,6.4,30.7,1.0,-31.2,5.73,2.32,-25.9,34.1
2012-08-10 00:51:00,0.0,1.9038,0.0015,376.73,0.34,313.1,30.5,137.97,35.42,24.65,36.39,0.98,18.57,-25.43,-52,566,-935,30.8,22.4,6.8,30.7,1.0,-31.1,5.73,2.33,-25.9,34.1
2012-08-10 00:52:00,0.0,1.9061,0.0014,376.55,0.28,300.7,31.6,137.97,35.42,24.65,36.39,0.98,18.59,-25.43,-52,566,-935,30.8,23.0,7.2,30.7,1.0,-31.2,5.73,2.30,-25.9,34.1
2012-08-10 00:53:00,0.0,1.9053,0.0009,376.65,0.35,309.4,29.9,137.97,35.43,24.65,36.39,0.97,18.61,-25.43,-52,566,-934,30.8,22.9,7.2,30.7,1.0,-31.0,5.73,2.31,-25.9,33.9
2012-08-10 00:54:00,0.0,1.9042,0.0011,376.89,0.39,302.0,25.8,137.97,35.43,24.65,36.39,0.97,18.63,-25.42,-52,566,-935,30.8,22.6,7.0,30.7,1.0,-31.1,5.73,2.33,-25.9,34.0
2012-08-10 00:55:00,0.0,1.9054,0.0013,376.84,0.34,301.8,27.8,137.97,35.44,24.65,36.40,0.96,18.65,-25.42,-52,566,-935,30.8,23.2,7.4,30.7,1.0,-31.2,5.73,2.31,-25.9,34.0
2012-08-10 00:56:00,0.0,1.9044,0.0011,376.98,0.41,312.0,27.1,137.97,35.44,24.65,36.39,0.96,18.66,-25.42,-52,566,-935,30.8,22.7,7.1,30.7,1.0,-31.2,5.73,2.30,-25.9,34.1
2012-08-10 00:57:00,0.0,1.9037,0.0011,377.03,0.31,311.4,29.6,137.97,35.44,24.65,36.40,0.95,18.68,-25.42,-52,566,-934,30.8,22.8,7.2,30.7,1.0,-31.2,5.73,2.33,-25.9,34.1
2012-08-10 00:58:00,0.0,1.9030,0.0009,377.20,0.29,307.3,33.7,137.96,35.44,24.65,36.39,0.97,18.70,-25.41,-52,566,-935,30.8,22.4,6.9,30.7,1.0,-31.2,5.73,2.32,-25.9,34.1
2012-08-10 00:59:00,0.0,1.9032,0.0012,377.32,0.28,302.5,26.6,137.96,35.45,24.65,36.40,0.96,18.71,-25.42,-52,566,-934,30.8,22.4,6.9,30.7,1.0,-31.3,5.73,2.30,-25.9,34.1
2012-08-10 01:00:00,0.0,1.9016,0.0011,377.18,0.31,308.3,31.0,137.96,35.45,24.65,36.39,0.96,18.73,-25.41,-52,566,-935,30.8,22.3,6.8,30.7,1.0,-31.1,5.73,2.32,-25.9,34.1
2012-08-10 01:01:00,0.0,1.9017,0.0010,376.92,0.36,304.3,30.0,137.96,35.45,24.65,36.40,0.97,18.75,-25.41,-52,566,-935,30.8,22.2,6.7,30.7,1.0,-31.1,5.73,2.33,-25.9,34.1
2012-08-10 01:02:00,0.0,1.9014,0.0011,377.02,0.34,305.2,27.0,137.96,35.45,24.65,36.40,1.05,18.71,-25.40,-52,566,-934,30.8,21.6,6.4,30.7,1.0,-31.2,5.73,2.30,-25.9,34.1
2012-08-10 01:03:00,0.0,1.9011,0.0009,376.98,0.30,306.3,34.6,137.96,35.46,24.65,36.40,1.17,17.51,-25.41,-52,566,-935,30.8,21.6,6.3,30.8,1.0,-31.2,5.73,2.31,-25.9,34.1
2012-08-10 01:04:00,0.0,1.9005,0.0011,377.04,0.34,308.8,29.2,137.96,35.47,24.65,36.40,1.11,15.35,-25.41,-52,566,-934,30.8,21.4,6.3,30.8,1.0,-31.1,5.73,2.33,-25.9,34.1
2012-08-10 01:05:00,0.0,1.9003,0.0010,377.19,0.35,316.8,27.8,137.96,35.47,24.65,36.39,1.02,13.01,-25.42,-52,567,-935,30.8,21.5,6.3,30.8,1.0,-31.2,5.73,2.30,-25.9,34.0
2012-08-10 01:06:00,0.0,1.8998,0.0009,377.09,0.33,308.9,30.0,137.96,35.48,24.65,36.40,1.04,10.66,-25.43,-52,566,-934,30.9,21.8,6.5,30.8,1.0,-31.2,5.73,2.30,-25.9,34.0
2012-08-10 01:07:00,0.0,1.9003,0.0010,377.02,0.26,305.6,27.6,137.96,35.48,24.65,36.39,1.08,8.40,-25.44,-52,567,-935,30.8,21.9,6.6,30.8,1.0,-31.1,5.73,2.33,-25.9,34.1
2012-08-10 01:08:00,0.0,1.8995,0.0011,376.97,0.36,316.6,30.9,137.96,35.49,24.65,36.40,1.01,6.26,-25.43,-52,567,-934,30.9,21.9,6.6,30.8,1.0,-31.1,5.73,2.31,-25.9,34.1
2012-08-10 01:09:00,0.0,1.8998,0.0010,376.88,0.30,310.9,29.3,137.96,35.49,24.65,36.40,1.10,4.21,-25.42,-52,567,-935,30.9,21.9,6.6,30.8,1.0,-31.1,5.73,2.30,-25.9,34.2
2012-08-10 01:10:00,0.0,1.9010,0.0011,376.90,0.31,308.6,33.7,137.96,35.49,24.65,36.38,1.11,2.27,-25.41,-52,567,-935,30.9,22.5,7.0,30.8,1.0,-31.1,5.73,2.32,-25.8,34.1
2012-08-10 01:11:00,0.0,1.9009,0.0012,376.90,0.37,312.9,30.1,137.96,35.50,24.65,36.39,1.01,0.44,-25.40,-52,567,-935,30.9,21.9,6.6,30.8,1.0,-31.1,5.73,2.32,-25.8,34.1
2012-08-10 01:12:00,0.0,1.9004,0.0010,376.91,0.31,312.0,30.4,137.96,35.51,24.65,36.40,1.07,-1.30,-25.38,-52,567,-935,30.9,22.0,6.7,30.8,1.0,-31.1,5.73,2.29,-25.8,34.1
2012-08-10 01:13:00,0.0,1.8999,0.0011,377.16,0.32,316.7,32.6,137.96,35.51,24.65,36.39,1.12,-2.88,-25.36,-52,567,-934,30.9,21.7,6.5,30.8,1.0,-31.0,5.73,2.31,-25.8,34.1
2012-08-10 01:14:00,0.0,1.8991,0.0012,377.05,0.33,317.4,34.9,137.96,35.52,24.65,36.39,1.03,-4.17,-25.35,-52,567,-935,30.9,21.5,6.4,30.8,1.0,-31.1,5.73,2.32,-25.8,34.3
2012-08-10 01:15:00,0.0,1.8988,0.0012,377.21,0.33,312.6,33.7,137.96,35.52,24.65,36.39,1.05,-5.56,-25.33,-52,567,-935,30.9,21.9,6.6,30.8,1.0,-31.2,5.73,2.30,-25.8,34.4
2012-08-10 01:16:00,0.0,1.9010,0.0013,376.54,0.41,313.8,30.5,137.96,35.53,24.65,36.39,1.12,-6.03,-25.32,-52,567,-935,30.9,22.9,7.3,30.8,1.0,-31.0,5.73,2.30,-25.8,34.3
2012-08-10 01:17:00,0.0,1.9008,0.0013,377.03,0.34,320.2,32.5,137.96,35.53,24.65,36.39,1.06,-7.63,-25.31,-52,567,-935,30.9,22.2,6.9,30.9,1.0,-31.1,5.73,2.32,-25.8,34.3
2012-08-10 01:18:00,0.0,1.9010,0.0011,376.86,0.29,318.8,34.0,137.96,35.54,24.65,36.40,1.02,-8.84,-25.30,-52,567,-934,30.9,22.5,7.1,30.9,1.0,-31.1,5.73,2.30,-25.8,34.3
2012-08-10 01:19:00,0.0,1.8997,0.0012,377.25,0.30,321.0,27.2,137.96,35.55,24.65,36.39,1.10,-10.13,-25.29,-52,567,-935,31.0,21.2,6.2,30.9,1.0,-31.2,5.73,2.29,-25.8,34.3
2012-08-10 01:20:00,0.0,1.8996,0.0010,377.34,0.35,319.8,31.2,137.96,35.55,24.65,36.38,1.10,-11.22,-25.29,-52,567,-935,31.0,21.2,6.2,30.9,1.0,-31.2,5.73,2.32,-25.7,34.4
2012-08-10 01:21:00,0.0,1.8989,0.0010,377.21,0.31,309.9,32.6,137.96,35.55,24.65,36.40,1.01,-12.21,-25.28,-52,567,-935,31.0,21.0,6.1,30.9,1.0,-31.0,5.73,2.31,-25.7,34.4
2012-08-10 01:22:00,0.0,1.8994,0.0010,377.08,0.38,311.4,34.2,137.96,35.56,24.65,36.40,1.04,-13.24,-25.28,-52,567,-935,31.0,21.7,6.6,30.9,1.0,-31.1,5.73,2.29,-25.7,34.3
2012-08-10 01:23:00,0.0,1.8985,0.0011,377.42,0.33,309.8,36.5,137.96,35.57,24.65,36.39,1.12,-14.17,-25.28,-52,567,-934,31.0,21.2,6.2,30.9,1.0,-31.1,5.73,2.32,-25.8,34.4
2012-08-10 01:24:00,0.0,1.9000,0.0011,377.16,0.31,316.9,27.1,137.96,35.58,24.65,36.39,1.06,-14.98,-25.28,-52,567,-935,31.0,21.7,6.6,30.9,1.0,-31.1,5.73,2.31,-25.8,34.4
2012-08-10 01:25:00,0.0,1.8995,0.0010,377.29,0.36,310.5,29.1,137.96,35.58,24.65,36.39,1.00,-15.78,-25.27,-52,567,-934,31.0,21.1,6.2,31.0,1.0,-31.1,5.73,2.28,-25.7,34.5
2012-08-10 01:26:00,0.0,1.8985,0.0014,377.52,0.30,323.9,31.7,137.96,35.59,24.65,36.39,1.07,-16.54,-25.28,-52,567,-935,31.0,20.7,5.9,31.0,1.0,-31.0,5.73,2.31,-25.7,34.4
2012-08-10 01:27:00,0.0,1.8980,0.0010,377.41,0.33,326.0,35.7,137.96,35.60,24.65,36.39,1.09,-17.23,-25.28,-52,567,-935,31.0,21.0,6.1,31.0,1.0,-31.1,5.73,2.32,-25.7,34.4
2012-08-10 01:28:00,0.0,1.8991,0.0012,376.89,0.29,321.6,34.0,137.96,35.60,24.65,36.39,1.07,-17.90,-25.27,-52,567,-934,31.1,21.6,6.5,31.0,1.0,-31.1,5.73,2.29,-25.7,34.5
2012-08-10 01:29:00,0.0,1.8987,0.0011,377.32,0.31,314.8,29.2,137.96,35.61,24.65,36.39,1.01,-18.55,-25.28,-52,567,-935,31.1,21.1,6.2,31.0,1.0,-31.0,5.73,2.30,-25.7,34.5
2012-08-10 01:30:00,0.0,1.8983,0.0011,377.23,0.33,322.8,36.1,137.96,35.61,24.65,36.39,1.06,-19.18,-25.28,-52,567,-935,31.1,21.0,6.1,31.0,1.0,-31.1,5.73,2.32,-25.7,34.4
2012-08-10 01:31:00,0.0,1.8978,0.0010,377.32,0.34,314.7,35.9,137.96,35.62,24.65,36.40,1.10,-19.77,-25.28,-52,567,-935,31.1,20.8,6.0,31.0,1.0,-31.0,5.73,2.29,-25.7,34.4
2012-08-10 01:32:00,0.0,1.8974,0.0012,377.51,0.36,315.5,32.2,137.96,35.62,24.65,36.39,1.06,-20.32,-25.30,-52,568,-935,31.1,20.6,5.9,31.0,1.0,-31.1,5.73,2.29,-25.7,34.4
2012-08-10 01:33:00,0.0,1.8974,0.0011,377.42,0.33,312.9,32.3,137.96,35.62,24.65,36.39,0.99,-20.84,-25.31,-52,567,-935,31.1,20.5,5.8,31.0,1.0,-31.0,5.73,2.32,-25.7,34.3
2012-08-10 01:34:00,0.0,1.8979,0.0012,377.26,0.36,316.4,33.4,137.96,35.62,24.65,36.39,1.05,-21.31,-25.31,-52,568,-935,31.1,21.2,6.3,31.0,1.0,-31.1,5.73,2.29,-25.7,34.4
2012-08-10 01:35:00,0.0,1.8977,0.0010,377.30,0.47,313.0,36.4,137.96,35.62,24.65,36.39,1.12,-21.77,-25.32,-52,568,-935,31.1,20.4,5.7,31.0,1.0,-31.0,5.73,2.29,-25.8,34.4
2012-08-10 01:36:00,0.0,1.8975,0.0012,377.48,0.33,313.6,30.8,137.96,35.62,24.65,36.38,1.05,-22.20,-25.33,-52,568,-935,31.1,20.8,6.1,31.0,1.0,-31.0,5.73,2.32,-25.8,34.4
2012-08-10 01:37:00,0.0,1.8977,0.0013,377.09,0.41,314.4,30.5,137.96,35.63,24.65,36.39,1.00,-22.62,-25.34,-52,568,-935,31.1,20.8,6.0,31.0,1.0,-31.1,5.73,2.29,-25.7,34.4
2012-08-10 01:38:00,0.0,1.8976,0.0012,377.35,0.37,317.3,39.4,137.96,35.63,24.65,36.39,1.04,-22.99,-25.35,-52,568,-935,31.1,21.0,6.2,31.0,1.0,-31.0,5.73,2.29,-25.7,34.5
2012-08-10 01:39:00,0.0,1.8975,0.0011,377.32,0.31,316.9,33.3,137.96,35.63,24.65,36.39,1.09,-23.36,-25.36,-52,568,-935,31.1,20.8,6.1,31.0,1.0,-31.1,5.73,2.32,-25.7,34.4
2012-08-10 01:40:00,0.0,1.8968,0.0012,377.44,0.29,308.5,34.4,137.96,35.63,24.65,36.39,1.08,-23.70,-25.37,-52,568,-935,31.1,20.7,6.0,31.1,1.0,-31.3,5.73,2.29,-25.7,34.4
2012-08-10 01:41:00,0.0,1.8974,0.0011,377.29,0.39,312.5,35.5,137.96,35.64,24.65,36.39,1.02,-24.01,-25.37,-52,568,-935,31.2,21.1,6.3,31.1,1.0,-31.2,5.73,2.29,-25.7,34.4
2012-08-10 01:42:00,0.0,1.8970,0.0011,377.08,0.39,315.6,34.5,137.96,35.64,24.65,36.39,1.01,-24.31,-25.38,-52,568,-935,31.1,21.4,6.4,31.1,1.0,-31.3,5.73,2.32,-25.7,34.4
2012-08-10 01:43:00,0.0,1.8965,0.0011,377.24,0.37,317.6,32.0,137.96,35.64,24.65,36.39,1.07,-24.60,-25.39,-52,568,-935,31.1,20.9,6.2,31.1,1.0,-31.3,5.73,2.30,-25.7,34.4
2012-08-10 01:44:00,0.0,1.8960,0.0013,377.45,0.34,309.8,30.9,137.96,35.65,24.65,36.39,1.10,-24.86,-25.39,-52,568,-935,31.1,20.9,6.1,31.1,1.0,-31.3,5.73,2.28,-25.7,34.4
2012-08-10 01:45:00,0.0,1.8962,0.0010,377.26,0.34,315.7,38.2,137.96,35.65,24.65,36.39,1.02,-25.12,-25.40,-52,568,-935,31.2,21.1,6.3,31.1,1.0,-31.3,5.73,2.31,-25.7,34.4
2012-08-10 01:46:00,0.0,1.8961,0.0012,377.34,0.37,316.3,37.4,137.96,35.66,24.65,36.39,0.99,-25.35,-25.42,-52,568,-935,31.2,20.6,6.0,31.1,1.0,-31.3,5.73,2.30,-25.7,34.4
2012-08-10 01:47:00,0.0,1.8957,0.0011,377.67,0.29,311.6,35.4,137.96,35.66,24.65,36.39,1.05,-25.12,-25.42,-52,568,-935,31.2,20.3,5.8,31.1,1.0,-31.3,5.73,2.28,-25.8,34.4
2012-08-10 01:48:00,0.0,1.8962,0.0012,377.29,0.35,313.6,38.1,137.96,35.67,24.65,36.39,1.03,-25.14,-25.43,-53,568,-935,31.2,21.1,6.3,31.1,1.0,-31.3,5.73,2.31,-25.7,34.4
2012-08-10 01:49:00,0.0,1.8980,0.0011,377.09,0.35,322.9,33.1,137.96,35.68,24.65,36.39,1.09,-25.33,-25.44,-52,568,-935,31.2,21.9,6.8,31.1,1.0,-31.2,5.73,2.30,-25.7,34.4
2012-08-10 01:50:00,0.0,1.8986,0.0013,376.76,0.32,317.6,31.0,137.96,35.69,24.65,36.39,1.02,-25.24,-25.45,-53,568,-935,31.2,22.1,7.0,31.1,1.0,-31.3,5.73,2.29,-25.7,34.5
2012-08-10 01:51:00,0.0,1.8967,0.0012,377.45,0.34,315.4,32.8,137.96,35.69,24.65,36.40,1.06,-25.13,-25.46,-53,568,-935,31.2,20.6,6.0,31.1,1.0,-31.3,5.73,2.31,-25.7,34.6
2012-08-10 01:52:00,0.0,1.8965,0.0013,377.55,0.32,317.5,32.4,137.96,35.70,24.65,36.38,1.00,-25.30,-25.47,-52,568,-935,31.2,20.8,6.1,31.1,1.0,-31.3,5.73,2.30,-25.7,34.6
2012-08-10 01:53:00,0.0,1.8981,0.0019,377.32,0.40,326.8,35.6,137.96,35.70,24.65,36.39,0.93,-25.37,-25.48,-52,568,-935,31.2,21.3,6.5,31.1,1.0,-31.3,5.73,2.28,-25.7,34.5
2012-08-10 01:54:00,0.0,1.8976,0.0012,377.51,0.39,321.2,36.2,137.96,35.71,24.65,36.39,1.07,-25.13,-25.48,-54,568,-935,31.2,21.2,6.4,31.2,1.0,-31.2,5.73,2.31,-25.7,34.5
2012-08-10 01:55:00,0.0,1.8978,0.0012,377.50,0.41,323.2,37.1,137.96,35.71,24.65,36.38,1.10,-25.26,-25.49,-53,568,-935,31.2,20.8,6.1,31.2,1.0,-31.2,5.73,2.30,-25.7,34.6
2012-08-10 01:56:00,0.0,1.8979,0.0012,377.47,0.38,324.4,29.6,137.96,35.71,24.65,36.39,1.03,-25.44,-25.50,-53,568,-935,31.3,21.2,6.5,31.2,1.0,-31.2,5.73,2.28,-25.7,34.7
2012-08-10 01:57:00,0.0,1.8982,0.0016,377.60,0.37,317.6,32.4,137.96,35.72,24.65,36.39,1.01,-25.17,-25.50,-53,568,-935,31.3,20.9,6.3,31.2,1.0,-31.2,5.73,2.31,-25.7,34.6
2012-08-10 01:58:00,0.0,1.8983,0.0013,377.56,0.36,316.2,40.2,137.96,35.73,24.65,36.39,1.01,-25.24,-25.51,-53,568,-935,31.3,21.1,6.4,31.2,1.0,-31.3,5.73,2.30,-25.7,34.6
2012-08-10 01:59:00,0.0,1.8971,0.0009,377.87,0.38,334.0,32.6,137.96,35.73,24.65,36.38,1.06,-25.43,-25.52,-53,568,-935,31.3,20.5,6.0,31.2,1.0,-31.3,5.73,2.28,-25.7,34.6
2012-08-10 02:00:00,0.0,1.8978,0.0013,377.70,0.33,314.8,35.1,137.96,35.74,24.65,36.39,1.04,-25.26,-25.52,-52,568,-935,31.3,20.9,6.3,31.2,1.0,-31.5,5.73,2.31,-25.7,34.6
2012-08-10 02:01:00,0.0,1.8976,0.0010,377.73,0.38,318.4,34.1,137.96,35.74,24.65,36.38,1.02,-25.22,-25.48,-53,568,-935,31.3,20.6,6.0,31.2,1.0,-31.3,5.73,2.29,-25.7,34.6
2012-08-10 02:02:00,0.0,1.8964,0.0012,377.84,0.42,322.8,39.9,137.96,35.75,24.65,36.39,0.97,-25.42,-24.40,-53,569,-934,31.3,20.5,6.0,31.2,1.0,-31.1,5.73,2.29,-25.7,34.6
2012-08-10 02:03:00,0.0,1.8978,0.0014,378.06,0.37,322.5,38.5,137.96,35.75,24.65,36.38,0.91,-25.59,-22.52,-53,568,-935,31.3,20.8,6.2,31.2,1.1,-30.0,5.73,2.32,-25.7,34.6
2012-08-10 02:04:00,0.0,1.8982,0.0011,377.68,0.35,327.4,33.9,137.96,35.76,24.65,36.39,0.89,-25.69,-20.55,-53,568,-935,31.3,21.1,6.4,31.2,1.2,-29.0,5.73,2.30,-25.7,34.6
2012-08-10 02:05:00,0.0,1.8987,0.0013,377.36,0.41,316.2,38.7,137.96,35.76,24.65,36.39,0.88,-25.74,-18.63,-53,569,-935,31.3,21.5,6.7,31.2,1.3,-28.4,5.73,2.29,-25.7,34.6
2012-08-10 02:06:00,0.0,1.8984,0.0011,377.48,0.33,320.0,37.1,137.96,35.77,24.65,36.39,0.89,-25.77,-16.79,-53,569,-935,31.3,21.5,6.6,31.2,1.3,-28.4,5.73,2.32,-25.7,34.6
2012-08-10 02:07:00,0.0,1.8976,0.0013,377.86,0.36,324.9,42.7,137.95,35.78,24.65,36.38,0.91,-25.79,-15.06,-53,568,-935,31.3,20.8,6.2,31.2,1.3,-28.4,5.73,2.29,-25.7,34.6
2012-08-10 02:08:00,0.0,1.8974,0.0013,377.89,0.41,322.7,38.6,137.96,35.78,24.65,36.39,0.93,-25.79,-13.41,-53,569,-935,31.3,20.7,6.2,31.2,1.3,-28.5,5.73,2.29,-25.7,34.6
2012-08-10 02:09:00,0.0,1.8974,0.0015,377.86,0.30,334.6,32.8,137.96,35.79,24.65,36.38,0.93,-25.79,-11.85,-53,569,-935,31.3,20.9,6.3,31.2,1.3,-28.7,5.73,2.32,-25.7,34.6
2012-08-10 02:10:00,0.0,1.8982,0.0013,377.72,0.48,324.9,38.9,137.96,35.79,24.65,36.39,0.94,-25.78,-10.37,-53,569,-935,31.3,21.2,6.5,31.2,1.2,-28.9,5.73,2.29,-25.7,34.6
2012-08-10 02:11:00,0.0,1.8986,0.0012,377.68,0.31,323.0,34.5,137.96,35.80,24.65,36.38,0.95,-25.78,-8.97,-53,569,-935,31.3,21.3,6.6,31.2,1.2,-29.1,5.73,2.30,-25.7,34.6
2012-08-10 02:12:00,0.0,1.8981,0.0010,377.61,0.38,325.3,39.8,137.96,35.81,24.65,36.39,0.95,-25.77,-7.65,-53,569,-935,31.3,21.3,6.5,31.3,1.2,-29.2,5.73,2.31,-25.7,34.7
2012-08-10 02:13:00,0.0,1.8977,0.0011,377.44,0.37,323.3,31.6,137.96,35.81,24.65,36.39,0.94,-25.76,-6.39,-53,569,-935,31.3,21.3,6.6,31.3,1.2,-29.3,5.73,2.29,-25.7,34.7
2012-08-10 02:14:00,0.0,1.8978,0.0011,377.79,0.39,323.4,38.4,137.96,35.82,24.65,36.39,0.93,-25.76,-5.20,-53,569,-935,31.3,21.1,6.4,31.3,1.2,-29.5,5.73,2.30,-25.6,34.6
2012-08-10 02:15:00,0.0,1.8987,0.0011,377.81,0.35,336.5,29.8,137.95,35.83,24.65,36.39,0.93,-25.75,-4.06,-53,569,-935,31.3,21.6,6.8,31.3,1.2,-29.6,5.73,2.31,-25.6,34.6
2012-08-10 02:16:00,0.0,1.8977,0.0013,377.72,0.45,337.9,40.7,137.96,35.83,24.65,36.39,0.91,-25.73,-2.99,-53,569,-935,31.3,21.3,6.6,31.3,1.2,-29.5,5.73,2.29,-25.6,34.6
2012-08-10 02:17:00,0.0,1.8989,0.0012,377.91,0.45,327.5,38.4,137.96,35.84,24.65,36.39,0.91,-25.72,-1.97,-53,569,-935,31.4,21.6,6.8,31.3,1.1,-29.8,5.73,2.30,-25.6,34.7
2012-08-10 02:18:00,0.0,1.8996,0.0012,377.81,0.38,342.4,35.2,137.95,35.85,24.65,36.39,0.91,-25.70,-0.99,-53,569,-935,31.4,21.6,6.8,31.3,1.1,-29.8,5.73,2.32,-25.6,34.7
2012-08-10 02:19:00,0.0,1.8984,0.0014,377.99,0.42,340.4,28.7,137.96,35.85,24.65,36.38,0.93,-25.69,-0.07,-53,569,-935,31.4,21.8,7.0,31.3,1.1,-29.9,5.73,2.29,-25.5,34.7